Location: Sabalos
(43.2860°N, 0.1414°E)
Time: 08:15:38
(UTC+00:00)

Cosmos 1727 Rocket - Pass Details

Date: 05 July 2020
Orbit: 962 x 996 km, 82.9° (Epoch: 14 August)

Event Time Altitude Azimuth Distance (km) Brightness Sun altitude
Rises 23:37:33 0° 354° (N) 3,672 8.5 -23.8°
Reaches altitude 10° 23:40:05 10° 358° (N) 2,725 7.4 -23.8°
Maximum altitude 23:46:17 63° 80° (E) 1,086 4.2 -23.9°
Enters shadow 23:48:07 44° 138° (SE) 1,319 4.3 -23.9°
